Location: ?
(35.4554°N, 139.3092°E)
Time: 21:08:00
(UTC+00:00)

Cosmos 2082 - Pass Details

Date: 21 April 2021
Orbit: 834 x 855 km, 71.0° (Epoch: 10 May)

Event Time Altitude Azimuth Distance (km) Brightness Sun altitude
Exits shadow 12:24:55 53° 317° (NW) 1,021 4.3 -32.6°
Drops below altitude 10° 12:29:53 10° 12° (NNE) 2,450 6.5 -33.2°
Sets 12:32:23 0° 17° (NNE) 3,389 7.3 -33.5°
